カタログに戻る

ERS 9

Lost科学PO
NORAD 635·PAYLOAD·🇺🇸 United States

打ち上げ Jul 19, 1963 から Vandenberg Space Force Base

Loading…

次のパス (今後24時間)

TLE

古いSource: Space-Track

元期: Oct 8, 2025, 10:11 UTC

1 00635U 63030B   25281.42451812 -.00000018  00000-0 -10374-1 0  9998
2 00635  88.4228 228.9160 0044348 284.1662  75.4263  8.57948362948851

AllMySatでERS 9をリアルタイム追跡

Download on the App Store